Location: Fernhill
(41.0167°S, 175.6333°E)
Time: 09:21:14
(UTC+00:00)

Cosmos 1302 Rocket - Pass Details

Date: 08 November 2025
Orbit: 752 x 772 km, 74.0° (Epoch: 11 December)

Event Time Altitude Azimuth Distance (km) Brightness Sun altitude
Rises 07:57:03 0° 337° (NNW) 3,238 7.1 -9.3°
Reaches altitude 10° 07:59:25 10° 335° (NNW) 2,320 6.4 -9.7°
Maximum altitude 08:04:42 74° 250° (WSW) 817 4.3 -10.5°
Drops below altitude 10° 08:10:03 10° 164° (SSE) 2,350 6.8 -11.4°
Sets 08:12:28 0° 162° (SSE) 3,283 7.5 -11.7°
